Temp
69 71 66 66 55 51 47 54 57 58 58 59 63 63 62 58 60 51 60 66 67 65 67 68 71 73 74 75 73 74 74 74 75 74 74 73 73 73 73 73 72 73 74 74 74 74 73 73 73
67 76 67 59 49 43 48 55 56 57 61 61 64 61 61 56 60 58 58 66 68 66 66 66 70 71 72 72 72 72 72 72 73 73 72 72 71 71 71 71 71 71 72 72 72 72 71 71 72
72 75 60 54 47 46 49 56 56 59 61 60 57 59 58 58 57 58 60 65 64 63 64 66 70 71 71 71 71 71 71 71 71 71 71 70 70 70 70 69 69 70 71 71 71 71 70 69 69
68 64 60 51 49 55 56 56 59 59 60 62 62 56 56 61 61 61 63 65 61 61 63 67 69 70 70 70 70 70 69 70 70 69 69 69 68 68 68 68 68 68 69 69 69 69 68 68 68
65 58 51 47 51 55 57 61 60 59 58 59 61 57 56 58 60 63 62 63 59 58 60 63 68 69 69 69 69 68 68 68 68 68 67 67 67 67 66 67 67 67 67 67 67 67 67 67 67
58 57 48 45 50 58 60 65 62 60 60 59 57 54 55 58 59 59 60 59 59 58 58 60 65 66 67 67 67 67 66 66 66 66 66 65 65 65 64 65 65 65 66 66 66 66 66 66 67
55 52 47 49 53 58 62 64 61 61 59 60 63 56 50 53 57 59 58 58 57 57 56 55 56 61 64 65 65 65 64 64 64 64 64 64 63 62 61 63 64 64 65 65 65 65 65 66 65
59 55 49 50 54 56 60 60 61 61 61 62 65 57 54 55 58 58 57 56 54 55 54 53 52 53 53 55 62 62 62 62 62 62 62 62 62 60 59 59 62 63 64 64 64 64 63 62 62
62 49 46 52 55 57 60 59 60 61 58 58 63 58 58 59 58 55 53 53 52 55 54 52 51 51 51 51 55 59 60 60 61 59 60 56 50 51 53 59 61 60 61 61 62 61 60 58 57
55 46 53 59 59 57 60 59 61 56 56 57 57 56 57 59 57 55 52 52 51 51 51 53 51 51 50 57 50 49 52 50 50 50 51 50 50 50 52 54 57 57 56 58 58 58 56 53 48
57 51 58 63 61 61 60 57 62 58 55 58 59 56 55 53 55 55 55 55 55 54 53 53 53 51 50 52 47 46 46 46 47 48 48 49 49 47 45 44 44 44 49 45 47 46 47 47 47
55 61 63 63 62 60 57 61 59 58 63 65 63 62 56 54 54 54 54 54 52 52 55 53 52 52 50 48 48 47 47 45 44 46 48 45 43 43 43 42 42 42 42 42 42 42 44 45 46
57 58 63 63 62 60 59 58 57 58 61 64 65 60 56 56 56 57 57 57 56 54 54 53 52 52 52 49 47 47 46 45 45 45 46 45 43 42 42 42 41 41 41 41 41 42 42 43 44
57 58 59 60 61 60 58 54 56 58 61 62 63 60 56 57 56 54 53 55 55 57 54 54 53 53 51 49 47 47 46 45 45 43 44 45 43 42 42 41 41 40 40 40 41 41 41 41 42
58 55 56 58 59 57 57 52 53 64 59 60 59 59 57 57 57 57 57 57 58 58 55 54 53 52 52 49 48 46 45 46 43 43 44 44 43 43 41 40 40 40 40 41 40 41 40 40 42
51 48 44 54 56 57 58 49 57 62 57 59 58 56 57 59 58 60 60 59 59 57 54 55 57 53 50 50 47 47 45 44 43 43 42 44 44 43 41 40 40 40 40 40 39 38 38 37 38
45 41 43 51 58 53 52 49 57 60 56 57 54 56 58 58 59 61 60 60 59 58 56 53 54 51 50 47 46 45 45 43 43 42 41 43 43 43 40 39 39 40 39 38 39 37 37 36 36
40 41 45 47 52 49 46 49 58 57 55 57 55 55 56 60 63 64 61 61 60 58 56 54 53 51 49 46 44 42 42 42 41 40 42 42 41 42 40 39 39 38 37 36 37 37 37 36 35
49 47 44 51 57 51 50 52 55 60 53 57 60 60 58 60 67 60 61 60 58 56 54 52 51 49 50 46 44 42 43 40 39 40 42 41 41 41 39 37 38 37 37 37 38 36 35 33 34
49 48 48 53 55 50 49 50 54 57 59 56 60 61 62 63 58 60 56 57 57 54 53 52 51 50 51 49 48 42 40 40 40 39 40 41 40 39 39 37 36 36 35 35 35 35 32 33 33
50 47 49 48 50 48 45 42 46 53 58 59 60 63 64 64 58 57 53 55 55 53 52 51 51 50 51 48 45 40 41 38 37 37 38 38 40 39 38 37 36 35 34 33 33 33 33 31 31
46 51 50 47 41 40 44 39 44 50 52 55 59 60 60 61 55 56 53 53 54 54 54 52 51 49 49 46 45 45 42 42 42 42 39 37 39 38 37 37 36 34 33 33 33 35 32 31 30
51 49 49 43 38 36 39 35 40 49 47 52 58 60 64 61 55 52 53 56 55 54 52 51 50 48 48 45 47 46 43 43 36 35 36 38 36 37 35 35 34 33 32 32 32 33 32 31 30
48 44 42 39 36 31 37 39 43 41 51 51 59 59 62 58 56 53 54 53 51 49 51 49 48 48 47 46 46 45 43 39 36 37 37 37 37 35 34 34 33 32 32 31 32 32 31 30 30
45 42 30 26 24 30 42 36 48 50 52 56 59 61 62 54 52 49 47 49 48 47 48 49 48 47 47 46 45 44 44 42 40 38 39 36 35 34 33 33 31 31 31 31 31 31 31 30 29
41 46 33 24 25 37 35 31 42 55 61 56 58 61 54 51 51 49 50 49 48 48 46 48 47 48 45 45 45 44 43 42 42 39 39 37 37 36 33 32 32 31 31 31 30 29 30 30 30
41 36 47 35 25 23 42 42 49 51 52 53 55 53 51 49 48 48 47 46 45 45 46 47 47 47 45 45 45 44 42 43 42 39 37 38 35 34 33 32 31 30 30 30 29 29 29 29 29
41 43 34 34 25 21 37 35 44 46 56 58 51 50 50 48 48 48 47 46 46 46 47 46 46 46 45 45 45 44 41 42 41 37 35 33 33 32 32 31 30 29 29 29 29 28 29 28 29
35 36 37 38 34 33 32 40 48 48 49 52 52 51 49 50 49 49 48 46 46 45 44 44 43 43 44 43 43 42 40 39 35 36 36 34 33 31 31 30 29 29 28 28 27 27 27 27 28
44 44 46 37 36 29 33 39 53 55 54 52 49 52 52 52 53 51 49 45 45 46 45 44 44 43 43 43 41 40 37 34 35 35 33 32 32 30 30 29 28 28 27 27 26 26 27 27 26
MSLP
1015.08 1014.90 1015.27 1015.40 1016.88 1017.09 1016.17 1014.61 1013.66 1013.59 1013.52 1013.76 1013.82 1014.29 1015.05 1016.15 1017.06 1018.88 1018.89 1018.76 1019.10 1019.52 1019.72 1019.64 1019.73 1019.67 1019.60 1019.67 1019.79 1019.77 1019.74 1019.85 1019.96 1020.06 1020.26 1020.51 1020.66 1020.69 1020.79 1020.89 1020.89 1020.72 1020.70 1020.66 1020.62 1020.68 1020.76 1020.65 1020.58
1015.10 1014.64 1015.29 1016.14 1016.99 1017.04 1015.68 1014.34 1014.18 1013.91 1013.84 1013.87 1014.10 1014.64 1015.33 1016.57 1017.27 1018.39 1018.87 1018.68 1018.80 1019.39 1019.67 1019.79 1019.76 1019.79 1019.93 1019.87 1020.01 1020.09 1020.19 1020.23 1020.32 1020.37 1020.62 1020.84 1021.01 1021.12 1021.18 1021.19 1021.22 1021.20 1021.05 1020.98 1020.89 1021.05 1020.98 1020.95 1020.72
1015.03 1014.90 1016.15 1016.55 1016.86 1016.40 1015.11 1014.32 1014.21 1014.14 1013.94 1014.03 1014.66 1014.96 1015.63 1016.55 1017.32 1017.83 1018.01 1018.25 1018.78 1019.36 1019.60 1019.84 1019.90 1019.93 1020.03 1020.13 1020.30 1020.40 1020.53 1020.58 1020.59 1020.76 1020.95 1021.08 1021.23 1021.33 1021.44 1021.49 1021.49 1021.40 1021.28 1021.19 1021.33 1021.20 1021.11 1021.05 1020.95
1015.29 1015.59 1016.47 1016.64 1016.39 1015.00 1014.30 1013.94 1013.95 1014.13 1014.26 1014.29 1014.70 1015.57 1016.00 1016.18 1016.66 1017.24 1017.73 1018.07 1018.75 1019.29 1019.59 1019.82 1019.92 1020.04 1020.28 1020.42 1020.47 1020.58 1020.69 1020.72 1020.90 1021.05 1021.28 1021.40 1021.56 1021.59 1021.51 1021.56 1021.63 1021.60 1021.61 1021.58 1021.48 1021.45 1021.47 1021.34 1021.32
1015.70 1016.41 1016.79 1016.52 1015.55 1014.24 1013.52 1013.40 1013.59 1014.08 1014.28 1014.54 1014.80 1015.53 1016.29 1016.61 1016.72 1017.16 1017.62 1018.02 1018.75 1019.41 1019.62 1019.75 1019.86 1020.09 1020.38 1020.57 1020.72 1020.87 1020.93 1021.04 1021.09 1021.38 1021.49 1021.60 1021.75 1021.85 1021.87 1021.88 1021.91 1021.90 1021.86 1021.80 1021.74 1021.67 1021.71 1021.54 1021.40
1016.30 1016.63 1017.04 1016.41 1014.99 1013.53 1012.81 1012.68 1013.14 1013.67 1014.07 1014.60 1015.13 1015.87 1016.47 1016.73 1017.14 1017.55 1017.73 1018.18 1018.64 1019.22 1019.57 1019.69 1019.85 1020.05 1020.24 1020.46 1020.70 1020.90 1021.09 1021.24 1021.41 1021.52 1021.66 1021.79 1021.99 1022.06 1022.22 1022.12 1022.18 1022.20 1022.12 1022.04 1022.00 1021.91 1021.86 1021.62 1021.45
1016.23 1016.83 1016.56 1015.62 1014.47 1013.37 1012.51 1012.15 1012.68 1013.20 1013.74 1014.17 1014.30 1015.69 1016.83 1017.43 1017.39 1017.65 1018.08 1018.43 1018.80 1019.19 1019.64 1019.91 1020.02 1020.16 1020.35 1020.41 1020.56 1020.79 1021.10 1021.42 1021.59 1021.73 1021.96 1022.09 1022.11 1022.27 1022.41 1022.33 1022.24 1022.10 1021.97 1021.97 1022.01 1022.07 1021.91 1021.70 1021.62
1015.75 1016.38 1016.04 1014.87 1013.76 1012.87 1012.25 1012.26 1012.44 1012.98 1013.40 1013.50 1013.74 1014.83 1015.86 1016.23 1017.26 1017.80 1018.35 1018.72 1019.10 1019.39 1019.66 1019.99 1020.16 1020.38 1020.60 1020.65 1020.72 1020.89 1021.16 1021.39 1021.57 1021.75 1021.96 1022.07 1022.15 1022.41 1022.55 1022.50 1022.37 1022.28 1022.19 1022.14 1022.08 1022.16 1022.18 1022.10 1021.89
1015.47 1016.16 1015.66 1014.40 1013.16 1012.44 1012.26 1012.42 1012.58 1012.84 1013.25 1013.58 1013.85 1014.34 1014.71 1015.34 1016.80 1017.73 1018.49 1019.00 1019.24 1019.34 1019.52 1019.86 1020.14 1020.36 1020.59 1020.80 1020.90 1020.99 1021.15 1021.42 1021.56 1021.74 1021.87 1022.10 1022.37 1022.58 1022.65 1022.65 1022.57 1022.61 1022.56 1022.52 1022.35 1022.35 1022.31 1022.18 1022.20
1015.81 1016.07 1014.82 1013.40 1012.84 1012.55 1012.44 1012.52 1012.78 1013.17 1013.32 1013.66 1014.03 1014.68 1015.21 1015.81 1016.70 1017.31 1017.76 1018.18 1018.50 1018.84 1019.06 1019.32 1019.70 1020.04 1020.32 1020.43 1020.85 1021.15 1021.28 1021.45 1021.63 1021.72 1021.87 1022.09 1022.27 1022.55 1022.76 1022.75 1022.77 1022.76 1022.84 1022.60 1022.52 1022.48 1022.41 1022.38 1022.44
1015.22 1015.06 1014.03 1013.01 1012.60 1012.53 1012.56 1012.72 1012.72 1013.15 1013.30 1013.19 1013.32 1014.33 1015.29 1015.81 1016.35 1016.71 1017.03 1017.04 1017.04 1017.93 1018.50 1018.75 1019.12 1019.57 1019.93 1020.15 1020.77 1021.09 1021.30 1021.42 1021.60 1021.65 1021.79 1021.97 1022.32 1022.67 1023.02 1023.05 1023.04 1023.02 1022.87 1022.88 1022.71 1022.60 1022.52 1022.43 1022.44
1014.58 1013.90 1013.60 1013.02 1012.64 1012.57 1012.81 1012.82 1012.73 1012.69 1011.95 1012.07 1012.37 1013.05 1014.33 1015.08 1015.41 1015.52 1015.94 1016.24 1016.78 1017.29 1017.64 1018.19 1018.63 1019.07 1019.54 1019.92 1020.37 1020.69 1021.13 1021.29 1021.52 1021.57 1021.68 1022.07 1022.54 1022.85 1023.12 1023.27 1023.22 1023.15 1023.12 1022.95 1022.92 1022.92 1022.89 1022.86 1022.74
1013.94 1013.55 1013.18 1012.86 1012.79 1012.77 1012.87 1012.95 1013.20 1011.96 1011.67 1011.87 1012.09 1012.86 1013.73 1014.24 1014.24 1014.50 1014.65 1015.41 1016.03 1016.50 1016.97 1017.45 1018.02 1018.45 1018.91 1019.45 1019.84 1020.23 1020.60 1020.96 1021.16 1021.34 1021.52 1021.81 1022.26 1022.67 1022.87 1023.01 1023.04 1023.16 1022.92 1023.04 1023.15 1023.18 1023.11 1022.99 1022.80
1013.47 1013.41 1013.17 1012.86 1012.88 1012.89 1013.10 1012.96 1013.24 1010.89 1011.05 1011.35 1011.84 1012.13 1012.69 1013.20 1013.22 1013.94 1014.39 1014.54 1014.97 1015.48 1015.98 1016.62 1017.23 1017.72 1018.29 1018.89 1019.29 1019.73 1020.17 1020.43 1020.86 1021.14 1021.39 1021.54 1021.91 1022.34 1022.68 1022.78 1022.88 1023.04 1022.88 1023.02 1023.10 1023.11 1023.26 1023.28 1023.04
1013.54 1013.72 1013.24 1012.36 1012.30 1012.85 1013.08 1012.86 1012.16 1009.92 1010.76 1010.99 1011.22 1011.47 1011.77 1011.85 1012.41 1012.24 1012.25 1013.03 1013.53 1014.16 1014.96 1015.67 1016.40 1017.08 1017.69 1018.32 1018.88 1019.39 1019.79 1020.08 1020.45 1020.82 1021.03 1021.17 1021.38 1021.65 1021.94 1022.27 1022.56 1022.71 1022.75 1022.95 1023.03 1023.18 1023.22 1023.26 1023.23
1014.04 1014.16 1013.70 1011.57 1011.94 1012.53 1012.83 1011.44 1010.09 1009.73 1010.51 1010.58 1010.56 1010.87 1011.00 1010.87 1010.80 1010.77 1011.10 1011.70 1012.44 1013.28 1013.96 1014.79 1015.59 1016.44 1017.19 1017.93 1018.55 1019.00 1019.36 1019.72 1020.01 1020.31 1020.62 1020.89 1021.10 1021.43 1021.86 1022.16 1022.47 1022.59 1022.80 1023.05 1023.19 1023.34 1023.55 1023.51 1023.45
1014.43 1013.98 1013.39 1012.30 1011.49 1012.13 1012.63 1011.34 1009.78 1009.30 1010.12 1009.94 1010.03 1009.91 1009.96 1009.76 1009.58 1009.41 1009.65 1010.07 1010.85 1011.63 1012.76 1013.80 1014.64 1015.58 1016.53 1017.47 1018.15 1018.73 1019.12 1019.46 1019.67 1019.96 1020.29 1020.59 1020.86 1021.24 1021.64 1021.96 1022.28 1022.54 1022.87 1023.04 1023.04 1023.27 1023.30 1023.50 1023.37
1013.68 1013.85 1012.96 1012.36 1011.68 1011.89 1012.10 1011.08 1009.53 1009.48 1009.73 1009.59 1009.38 1009.01 1008.92 1008.68 1007.47 1007.76 1008.43 1008.97 1009.79 1010.63 1011.56 1012.73 1013.93 1014.94 1015.93 1016.97 1017.90 1018.55 1018.97 1019.27 1019.48 1019.71 1019.92 1020.22 1020.62 1020.97 1021.39 1021.76 1022.00 1022.31 1022.81 1023.03 1023.10 1023.25 1023.34 1023.40 1023.34
1013.31 1012.99 1012.40 1011.54 1011.27 1011.52 1011.20 1010.46 1009.68 1008.86 1009.15 1008.95 1008.48 1007.97 1007.74 1007.29 1005.66 1006.53 1007.11 1007.82 1008.91 1010.04 1011.14 1012.17 1013.15 1014.16 1015.13 1016.32 1017.36 1018.19 1018.38 1018.86 1019.25 1019.39 1019.58 1020.00 1020.43 1020.86 1021.26 1021.71 1022.05 1022.45 1022.88 1022.94 1023.02 1023.19 1023.31 1023.45 1023.25
1013.17 1012.93 1012.40 1011.40 1010.82 1011.11 1010.55 1009.68 1009.26 1008.70 1007.65 1007.58 1007.27 1006.64 1006.25 1005.84 1005.62 1005.74 1006.30 1007.27 1007.84 1008.76 1009.96 1011.28 1012.15 1013.11 1013.96 1014.89 1015.94 1016.92 1017.65 1018.32 1018.66 1018.98 1019.32 1019.58 1020.00 1020.52 1021.07 1021.50 1021.89 1022.29 1022.67 1022.66 1022.77 1022.96 1023.50 1023.87 1023.88
1012.05 1012.29 1011.87 1011.71 1011.41 1010.81 1010.56 1008.97 1008.68 1007.53 1006.58 1006.22 1005.64 1005.19 1004.90 1004.49 1004.75 1005.20 1006.06 1006.50 1007.31 1008.26 1009.00 1010.05 1011.08 1012.21 1013.16 1014.26 1015.52 1016.55 1017.46 1018.08 1018.63 1018.75 1019.11 1019.53 1019.80 1020.22 1020.64 1021.03 1021.52 1022.02 1022.34 1022.53 1022.71 1023.01 1023.48 1024.10 1024.43
1011.04 1011.51 1011.43 1011.42 1012.03 1011.32 1010.98 1007.14 1007.45 1006.72 1006.04 1005.45 1004.39 1003.91 1003.56 1003.10 1003.66 1004.24 1005.15 1006.12 1006.51 1006.94 1008.13 1009.24 1010.33 1011.43 1012.39 1013.43 1014.49 1015.25 1015.69 1016.45 1016.69 1017.36 1018.27 1018.75 1019.35 1019.69 1019.99 1020.38 1020.92 1021.37 1021.74 1022.04 1022.37 1022.81 1023.40 1023.93 1024.41
1010.41 1011.40 1011.82 1012.22 1012.19 1011.61 1011.12 1010.92 1006.02 1005.74 1005.56 1004.55 1003.47 1002.87 1002.10 1002.32 1002.86 1003.61 1004.12 1004.38 1005.19 1006.35 1007.15 1008.31 1009.47 1010.61 1011.40 1012.39 1013.09 1014.14 1015.08 1015.75 1016.33 1017.05 1017.80 1018.26 1018.95 1019.38 1019.68 1020.02 1020.47 1021.04 1021.44 1021.77 1022.22 1022.68 1023.24 1023.75 1024.08
1011.08 1011.70 1012.38 1012.68 1012.94 1011.72 1010.89 1010.44 1001.84 1005.03 1004.11 1003.34 1002.76 1002.07 1001.64 1001.50 1002.04 1002.67 1003.41 1004.30 1005.24 1006.39 1007.39 1008.32 1009.13 1009.98 1010.76 1011.68 1012.46 1013.07 1014.00 1015.10 1016.09 1016.69 1017.32 1017.91 1018.45 1019.00 1019.36 1019.71 1020.18 1020.72 1021.27 1021.70 1022.05 1022.60 1023.14 1023.63 1023.87
1011.56 1012.13 1013.21 1013.54 1013.85 1010.72 1008.85 1008.63 1003.17 1003.30 1002.65 1002.04 1001.63 1001.15 1000.64 1001.11 1002.09 1002.88 1003.62 1004.55 1005.44 1006.16 1007.06 1008.05 1008.89 1009.64 1010.40 1011.08 1011.79 1012.42 1013.15 1014.09 1014.87 1015.64 1016.30 1017.18 1017.89 1018.33 1018.69 1019.09 1019.75 1020.35 1020.88 1021.46 1021.77 1022.32 1022.98 1023.34 1023.67
1010.67 1010.81 1011.87 1012.08 1012.02 1010.13 1008.63 1006.32 1002.90 1001.27 1000.69 1000.69 1000.45 1000.20 1000.28 1001.04 1001.98 1002.43 1003.14 1003.98 1004.77 1005.56 1006.46 1007.23 1007.99 1008.72 1009.42 1010.17 1010.76 1011.62 1012.45 1013.25 1013.84 1014.55 1015.19 1016.06 1016.68 1017.32 1017.89 1018.49 1019.05 1019.68 1020.27 1020.88 1021.41 1021.96 1022.52 1022.91 1023.30
1010.09 1010.48 1009.45 1010.61 1010.27 1009.94 1006.02 1003.80 1001.97 1000.97 1000.65 1000.42 1000.00 999.95 1000.89 1001.18 1001.84 1002.44 1002.98 1003.65 1004.31 1005.19 1005.85 1006.37 1007.23 1007.97 1008.56 1008.94 1009.87 1010.62 1011.42 1012.01 1012.62 1013.45 1014.37 1015.19 1016.01 1016.80 1017.33 1017.90 1018.51 1019.14 1019.75 1020.32 1020.77 1021.36 1021.95 1022.41 1022.73
1009.71 1009.99 1010.53 1010.75 1009.96 1008.32 1005.27 1003.53 1001.38 1000.54 1000.35 999.45 999.83 1000.19 1000.70 1001.15 1002.06 1002.37 1002.63 1003.20 1003.91 1004.52 1005.08 1005.90 1006.52 1006.95 1007.69 1008.57 1009.19 1009.78 1010.52 1011.18 1011.72 1012.67 1013.57 1014.43 1015.39 1016.29 1017.14 1017.82 1018.42 1018.95 1019.39 1019.82 1020.42 1021.07 1021.56 1022.04 1022.36
1009.94 1009.68 1009.63 1009.52 1008.50 1006.83 1005.08 1001.82 1000.03 999.42 999.19 999.38 998.99 998.96 1000.10 1000.89 1001.37 1001.79 1002.14 1002.70 1003.34 1003.91 1004.49 1005.08 1005.83 1006.45 1007.01 1007.36 1007.93 1008.76 1009.51 1010.39 1011.31 1011.92 1012.64 1013.37 1014.56 1015.76 1016.90 1017.61 1018.13 1018.80 1019.25 1019.47 1019.94 1020.58 1021.26 1021.71 1021.89
1008.65 1007.76 1007.92 1008.24 1006.80 1006.22 1004.69 1002.12 999.61 999.00 998.47 998.99 999.16 999.03 999.75 999.98 1000.43 1000.94 1001.62 1002.43 1003.15 1003.28 1003.90 1003.84 1004.46 1005.23 1005.66 1006.45 1007.26 1007.91 1008.97 1009.91 1010.80 1011.44 1012.19 1012.95 1013.87 1014.95 1015.98 1016.95 1017.92 1018.25 1018.80 1019.10 1019.52 1020.23 1020.90 1021.32 1021.64
Wind_Speed
4 6 1 5 5 5 4 6 3 3 3 2 2 5 8 3 3 5 4 7 11 10 7 6 10 9 8 9 10 9 10 9 10 11 12 11 12 11 10 10 12 12 12 12 12 12 13 13 14
3 3 4 2 4 2 6 3 4 2 3 4 6 3 5 1 4 6 6 7 9 10 7 5 9 12 11 10 11 11 10 10 10 10 10 11 11 11 12 12 12 11 11 11 12 11 10 10 10
4 1 4 4 3 4 4 5 7 3 4 3 3 2 2 5 1 10 5 10 10 9 7 5 10 12 12 12 12 12 12 11 12 13 12 12 11 12 12 12 11 11 11 11 10 10 10 11 11
2 5 5 4 7 9 4 5 6 7 3 2 5 2 2 2 9 9 10 10 10 9 7 8 11 12 12 12 13 12 12 12 12 12 12 12 11 12 12 12 12 12 11 11 11 10 10 10 10
4 3 1 3 7 6 1 8 8 6 5 4 4 4 2 2 7 14 10 9 12 8 7 7 13 13 12 12 12 12 12 12 12 11 12 12 12 12 12 12 12 11 11 12 12 12 11 11 12
4 3 2 4 5 4 4 10 9 7 5 5 3 3 4 6 10 9 9 9 11 11 8 7 10 12 13 12 12 12 11 11 11 11 12 12 12 12 12 12 12 11 12 13 13 13 12 12 11
4 3 5 5 7 5 4 4 7 8 8 7 6 5 1 4 7 8 8 8 9 10 8 6 6 8 12 13 13 13 12 11 11 12 12 11 12 13 12 12 13 13 14 14 14 14 14 15 14
4 3 4 5 5 6 4 2 1 5 7 2 6 7 6 8 10 8 7 7 8 8 8 7 6 6 6 6 13 14 13 12 12 12 11 11 11 12 12 10 12 12 12 13 13 13 14 14 14
3 3 4 6 3 3 4 4 3 3 2 2 6 2 2 14 13 9 6 6 6 7 9 8 8 7 7 6 7 12 14 13 13 10 8 8 5 6 6 9 10 11 11 11 12 13 14 14 13
4 3 7 5 3 2 3 4 7 2 3 4 3 3 7 14 15 14 11 12 8 10 9 11 9 9 8 7 6 6 5 4 5 5 5 5 5 4 5 7 9 11 10 12 13 13 13 10 4
5 7 4 4 2 3 2 2 6 6 8 8 13 9 12 9 14 15 14 14 17 11 9 11 10 8 9 7 5 3 3 4 4 5 5 5 4 4 3 3 3 3 7 3 6 6 5 7 5
5 9 8 6 2 1 3 5 4 9 12 6 11 13 16 16 18 19 18 16 12 13 14 11 10 10 8 5 6 5 4 4 4 5 6 5 3 4 3 2 3 3 2 5 5 4 4 5 5
8 5 7 6 6 5 2 10 7 13 10 11 9 11 17 16 18 15 16 13 12 14 14 14 12 11 9 8 6 5 6 5 5 5 5 5 5 5 4 3 3 3 3 4 4 4 5 5 6
3 3 7 6 6 6 6 5 4 10 9 15 11 11 13 18 20 11 11 15 16 15 16 14 15 12 10 8 7 6 5 6 5 5 5 7 5 5 4 4 4 3 3 3 3 4 4 4 5
3 8 9 10 9 9 6 11 15 25 5 9 12 11 11 18 13 21 20 19 18 13 15 17 15 13 13 10 7 6 5 6 5 5 7 7 6 6 6 4 4 3 2 3 3 4 4 4 5
3 2 4 4 7 6 10 18 10 17 10 17 13 10 10 15 20 18 16 18 17 14 18 17 15 15 12 10 6 6 5 5 5 5 5 7 7 6 5 4 4 3 3 3 2 2 2 3 4
4 7 9 11 11 8 8 11 9 7 10 14 11 12 12 11 15 16 18 20 19 19 19 19 17 16 14 9 7 6 7 5 6 5 5 7 7 6 5 5 4 4 3 2 1 2 2 2 3
9 7 7 9 3 4 7 16 19 9 4 11 10 10 11 15 22 17 18 18 18 19 19 19 15 16 14 8 6 4 5 4 5 5 7 8 6 7 6 4 5 4 3 2 1 1 1 0 3
5 6 7 10 8 7 14 17 21 18 8 16 17 15 14 17 22 11 16 17 18 16 17 19 18 16 14 9 9 6 9 5 4 5 8 8 7 6 6 4 5 4 4 4 3 1 3 3 4
12 18 19 13 15 10 10 19 14 13 17 13 18 18 19 19 9 9 11 15 20 20 19 19 20 19 15 12 10 5 5 3 3 4 6 7 8 7 6 6 5 5 4 4 3 3 2 3 4
17 14 18 15 7 6 8 12 10 13 16 14 15 18 17 22 13 10 11 18 17 19 22 21 21 19 17 12 8 4 4 3 4 4 5 5 8 7 7 7 6 6 4 4 3 4 4 1 2
23 9 12 9 2 15 7 22 8 8 16 14 19 16 20 20 9 9 11 14 19 19 18 19 19 19 16 16 14 15 10 10 8 8 6 6 9 8 8 7 6 6 4 5 4 4 3 3 2
19 4 9 3 5 6 6 8 4 9 10 12 15 16 21 13 11 11 17 21 19 17 19 18 19 18 17 18 17 14 11 8 4 4 9 10 7 8 7 7 7 6 4 5 5 4 4 2 2
3 2 2 3 2 13 10 11 10 8 15 8 16 15 18 11 10 9 9 9 12 10 13 14 18 18 16 18 18 19 16 10 7 9 10 8 7 7 8 7 6 6 5 5 5 4 4 4 2
3 5 4 4 1 14 12 12 22 8 8 15 17 18 19 8 8 9 11 12 11 14 15 14 16 17 16 18 17 17 17 16 15 12 11 11 8 7 9 8 7 5 6 6 5 5 4 3 2
10 15 9 10 7 14 4 11 9 15 16 11 12 15 8 9 9 10 12 12 13 16 15 16 17 17 17 18 18 15 15 11 10 12 9 10 10 10 9 9 8 7 7 6 6 3 3 4 4
6 8 12 3 2 3 13 15 10 6 10 10 16 10 8 9 9 11 9 10 11 13 16 18 16 16 15 18 16 16 14 17 14 13 10 9 8 7 9 10 9 8 8 7 7 4 5 5 4
3 0 2 4 5 8 16 8 16 6 17 17 10 11 10 8 8 8 9 11 10 10 13 13 13 17 14 15 15 14 14 15 13 12 14 11 9 8 10 9 9 8 7 7 7 5 4 5 4
2 4 5 3 5 14 17 17 8 8 7 11 12 10 9 9 10 10 9 8 10 9 12 13 13 15 15 15 16 16 14 12 10 12 13 13 11 11 10 10 9 8 7 7 6 5 5 5 5
6 12 17 14 19 4 5 16 4 12 9 5 3 5 6 8 9 8 9 8 11 14 12 16 15 16 17 15 14 15 11 11 13 12 11 11 13 11 11 10 9 8 7 7 6 6 5 5 5
Wind_Direction
301 280 274 36 43 66 268 263 140 74 58 41 62 84 136 85 154 201 222 131 129 125 117 106 120 121 115 123 90 78 73 78 79 80 78 74 67 62 66 64 50 43 40 38 35 33 30 26 25
305 298 40 73 89 33 273 212 121 137 144 108 68 4 64 138 124 141 125 170 130 127 121 116 125 126 124 121 114 108 112 107 107 104 94 88 86 80 78 70 62 58 56 49 43 38 35 29 17
296 287 81 107 163 197 235 168 163 133 105 102 87 75 143 186 143 160 202 153 116 118 116 124 136 127 122 119 119 119 114 109 107 103 97 92 89 84 78 73 67 60 53 49 46 41 37 27 21
30 11 14 92 246 263 227 158 142 128 26 49 135 162 56 216 161 172 155 141 118 120 123 138 137 131 129 126 121 116 112 107 108 103 98 92 87 81 74 67 62 58 55 51 45 40 31 25 18
26 60 43 250 260 267 210 171 156 149 163 198 149 220 229 4 121 141 149 142 131 130 130 140 141 138 134 127 122 120 118 113 109 107 100 95 90 82 76 73 67 59 55 49 44 38 28 23 19
10 97 36 253 250 267 192 162 145 151 181 174 155 149 212 141 136 166 148 148 135 138 135 130 138 140 136 132 128 123 117 113 111 105 103 95 91 86 75 75 69 66 62 51 44 38 31 28 31
129 96 225 251 258 290 224 154 157 175 160 210 165 170 21 188 173 159 151 144 130 136 134 136 129 138 145 144 139 132 124 122 119 114 107 102 92 80 71 66 58 54 50 44 40 35 36 33 26
120 105 278 245 236 250 185 107 64 153 231 26 157 214 222 200 167 148 142 145 143 145 147 154 149 137 136 143 142 138 132 130 126 127 118 99 92 83 71 57 58 53 53 46 45 42 36 34 27
67 47 254 256 242 215 185 160 325 163 143 228 206 173 238 136 142 141 147 160 163 172 166 163 166 163 154 146 148 144 142 138 135 137 144 113 112 114 89 78 74 63 57 53 47 43 35 31 21
118 158 235 221 311 322 211 178 182 200 217 233 210 46 117 140 159 171 177 186 186 188 184 174 175 167 161 159 153 153 157 151 150 138 124 127 116 121 107 85 78 67 56 47 41 38 33 27 5
198 214 220 295 354 27 311 269 188 178 246 211 209 177 171 166 178 186 198 197 195 186 181 183 176 168 169 161 168 173 167 154 143 137 135 132 108 95 93 75 59 57 54 37 34 22 19 11 3
221 237 243 273 241 172 255 297 256 196 226 213 226 189 173 178 189 194 200 200 186 186 188 179 176 174 179 157 168 171 164 161 157 162 145 129 118 112 113 113 102 73 49 40 32 22 6 6 353
216 240 254 249 225 231 269 254 246 263 250 248 236 155 188 198 204 209 206 201 191 194 188 185 177 177 178 167 170 170 174 166 166 154 145 139 135 134 135 126 99 74 54 46 25 15 9 2 354
267 267 270 266 249 243 193 260 158 260 230 245 238 230 194 202 206 202 202 201 198 195 190 181 183 177 170 173 174 173 169 161 156 151 150 138 138 143 146 129 109 90 70 47 36 25 17 360 350
295 308 312 248 231 222 136 282 225 250 229 247 240 233 206 215 197 208 205 203 197 197 181 185 178 173 175 176 171 167 171 164 153 156 156 149 151 153 146 139 123 125 91 61 41 25 25 11 347
256 208 280 253 168 204 135 264 233 248 193 236 242 238 227 224 215 215 203 200 193 183 180 180 178 176 171 174 169 169 170 167 162 161 158 162 156 153 146 138 144 122 80 89 77 59 19 10 341
242 237 218 295 188 150 178 251 261 261 193 239 229 235 233 236 231 219 204 195 187 182 177 178 176 173 170 166 163 166 170 172 173 160 161 166 157 154 147 150 147 130 118 94 80 50 66 344 321
213 224 246 230 215 158 198 249 267 256 269 243 238 240 240 243 242 215 207 197 185 182 177 173 171 169 165 159 153 155 170 181 169 170 173 165 160 160 155 155 149 136 134 137 114 106 339 268 311
231 261 239 266 250 178 228 235 246 260 217 244 255 258 248 239 250 207 203 189 179 176 169 173 167 170 165 169 172 174 188 181 183 179 167 163 162 168 164 155 154 157 163 168 158 148 57 5 347
244 259 268 278 264 200 246 245 243 255 252 221 236 245 247 252 253 220 191 181 179 175 173 172 175 173 178 177 179 168 149 181 165 174 170 171 166 171 169 166 170 170 162 150 127 91 54 34 31
243 243 259 264 301 248 298 265 231 248 248 249 238 243 255 247 239 223 180 187 175 176 176 177 178 177 179 171 155 108 104 89 158 191 177 188 174 172 170 171 169 175 164 167 143 122 119 137 358
264 224 243 242 231 268 148 290 233 242 248 246 251 245 241 248 222 205 183 181 185 186 176 175 176 177 178 169 175 184 192 190 197 184 177 173 179 178 177 174 172 177 170 156 154 145 145 138 203
257 222 238 239 239 314 173 285 222 186 241 251 248 245 253 240 208 198 189 190 190 177 176 175 175 178 178 179 184 190 200 194 150 145 167 181 182 181 178 174 174 177 166 162 166 156 151 166 170
123 75 358 31 80 265 172 200 250 191 218 244 246 249 256 238 202 201 190 166 173 164 171 173 176 183 180 181 188 195 193 178 164 178 183 186 184 186 184 178 173 169 165 167 170 175 178 183 181
154 98 298 318 349 250 186 212 254 292 249 219 231 236 239 177 170 166 164 173 167 171 175 177 181 188 186 188 192 194 196 187 191 184 187 181 181 189 192 175 169 166 167 175 167 164 164 178 183
195 199 181 204 227 277 133 246 255 214 230 229 237 228 194 183 191 183 182 180 180 181 178 181 186 190 186 190 196 195 194 192 196 189 184 189 190 189 175 175 169 169 167 163 157 149 173 193 219
188 184 228 303 126 32 262 270 291 241 248 249 239 236 206 206 192 196 188 184 179 178 185 190 190 195 193 195 193 197 192 195 196 188 182 182 175 173 171 169 165 161 163 167 164 168 182 201 209
159 102 111 238 208 245 261 259 264 272 269 258 265 213 219 206 207 213 202 189 186 188 190 193 197 198 194 195 201 199 196 200 191 174 183 176 168 158 161 161 161 163 161 162 163 174 184 202 209
89 248 234 292 191 249 263 271 217 241 247 257 245 218 195 212 216 210 212 194 191 189 184 188 192 197 203 198 195 196 196 190 176 183 185 174 157 157 162 166 161 165 170 169 164 175 184 205 222
254 228 227 239 250 240 268 262 168 252 231 186 309 289 229 215 213 210 208 181 194 201 196 198 200 199 207 201 194 197 181 172 181 186 175 159 161 159 163 161 169 171 169 161 162 174 192 206 230